Location: Killarney Provincial Park Observatory
(46.0124°N, 81.4000°W)
Time: 12:43:11
(UTC-04:00)

Iridium 22 - Visible Passes

Search period start: 18 April 2015 00:00
Search period end: 28 April 2015 00:00
Orbit: 776 x 779 km, 86.4° (Epoch: 18 April)

Date Brightness Start Highest point End Pass type
(mag) Time Alt. Az. Time Alt. Az. Time Alt. Az.
18 Apr 7.7 01:39:05 17° ENE 01:39:05 17° ENE 01:42:02 10° NE visible
18 Apr 5.8 03:19:33 59° NW 03:19:33 59° NW 03:24:05 10° N visible
19 Apr 5.9 02:46:06 61° NE 02:46:06 61° NE 02:50:33 10° N visible
19 Apr 7.3 04:26:34 16° WNW 04:26:46 16° WNW 04:29:48 10° NNW visible
20 Apr 6.6 02:12:39 38° ENE 02:12:39 38° ENE 02:16:47 10° NNE visible
20 Apr 6.8 03:53:07 27° WNW 03:53:07 27° WNW 03:57:11 10° NNW visible
21 Apr 7.3 01:39:11 23° ENE 01:39:11 23° ENE 01:42:42 10° NNE visible
21 Apr 6.1 03:19:39 44° WNW 03:19:39 44° WNW 03:24:04 10° N visible
22 Apr 7.8 01:05:43 14° ENE 01:05:43 14° ENE 01:07:57 10° NE visible
22 Apr 5.8 02:46:11 65° NNW 02:46:11 65° NNW 02:50:40 10° N visible
22 Apr 7.6 04:26:39 11° WNW 04:27:10 11° WNW 04:28:35 10° NW visible
23 Apr 6.1 02:12:42 51° NE 02:12:42 51° NE 02:17:03 10° N visible
23 Apr 7.2 03:53:10 20° WNW 03:53:10 20° WNW 03:56:49 10° NNW visible
24 Apr 6.9 01:39:13 31° ENE 01:39:13 31° ENE 01:43:10 10° NNE visible
24 Apr 6.5 03:19:41 33° WNW 03:19:41 33° WNW 03:23:56 10° NNW visible
25 Apr 7.5 01:05:44 19° ENE 01:05:44 19° ENE 01:08:53 10° NE visible
25 Apr 5.9 02:46:12 53° NW 02:46:12 53° NW 02:50:42 10° N visible
26 Apr 8.0 00:32:14 11° ENE 00:32:14 11° ENE 00:33:16 10° ENE visible
26 Apr 5.8 02:12:42 65° NNE 02:12:42 65° NNE 02:17:12 10° N visible
26 Apr 7.5 03:53:10 14° WNW 03:53:30 14° WNW 03:56:06 10° NW visible
27 Apr 6.4 01:39:12 43° ENE 01:39:12 43° ENE 01:43:28 10° NNE visible
27 Apr 7.0 03:19:40 24° WNW 03:19:40 24° WNW 03:23:40 10° NNW visible
